Regional Weather Roundup
Issued by NWS

Home | Current Version | Previous Version | Graphics & Text | Print | Product List | Glossary On
Versions: 1 2 3 4 5 6 7 8 9 10 11 12 13 14 15 16 17 18 19 20 21 22 23 24 25 26 27 28 29 30 31 32 33 34 35 36 37 38 39 40 41 42 43 44 45 46 47 48 49 50
000
ASUS43 KOAX 120410
RWRNE

WEATHER ROUNDUP FOR NEBRASKA
NATIONAL WEATHER SERVICE OMAHA NE
1000 PM CST MON DEC 11 2017

NOTES: SATELLITE DATA IS BEING USED TO AUGMENT CLOUD COVER ABOVE
       12000 FEET.
       "FAIR" INDICATES FEW OR NO CLOUDS BELOW 12,000 FEET WITH NO
       SIGNIFICANT WEATHER AND/OR OBSTRUCTIONS TO VISIBILITY.


NEZ001>004-019>022-054>056-120500-
NEBRASKA PANHANDLE

CITY           SKY/WX    TMP DP  RH WIND       PRES   REMARKS
SCOTTSBLUFF    CLOUDY    26  14  60 SW6       30.41S WCI  19
ALLIANCE       CLOUDY    15  10  80 W9        30.39F WCI   3
CHADRON        CLOUDY    19  14  81 SW3       30.42S
GORDON         FAIR      26  22  86 W6        30.38S WCI  19
KIMBALL        CLOUDY    26  11  54 NW12      30.42F WCI  15
SIDNEY         CLOUDY    16   7  67 W10       30.42R WCI   4
$$

NEZ057>060-069>072-079>082-120500-
SOUTHWEST NEBRASKA

CITY           SKY/WX    TMP DP  RH WIND       PRES   REMARKS
NORTH PLATTE   CLEAR     26  22  84 NW6       30.39R WCI  19
IMPERIAL       CLOUDY    28  18  66 W6        30.42R WCI  22
LEXINGTON      CLOUDY    37  28  70 NW6       30.38R WCI  33
MCCOOK         CLEAR     30  22  72 NW12      30.40R WCI  20
OGALLALA       CLOUDY    21  15  77 W8        30.42R WCI  12
$$

NEZ005>010-023>029-035>040-094-120500-
NORTH CENTRAL NEBRASKA

CITY           SKY/WX    TMP DP  RH WIND       PRES   REMARKS
VALENTINE      CLOUDY    39  27  62 N14       30.37S WCI  31
AINSWORTH      CLOUDY    34  33  96 N6        30.36S WCI  29
BROKEN BOW     CLOUDY    38  30  73 NW12      30.35S WCI  30
O`NEILL        CLEAR     27  26  93 N9        30.36R WCI  18
ORD            PTCLDY    33  29  85 N10       30.34S WCI  25
THEDFORD       CLOUDY    38  30  71 N9        30.38R WCI  32
$$

NEZ041-046>049-061>064-073>077-083>087-120500-
SOUTH CENTRAL NEBRASKA

CITY           SKY/WX    TMP DP  RH WIND       PRES   REMARKS
GRAND ISLAND   PTCLDY    35  24  64 N17       30.36R WCI  25
AURORA         PTCLDY    35  23  62 NW17      30.34S WCI  24
HASTINGS       MOCLDY    37  28  70 N22       30.35R WCI  26
HEBRON         PTCLDY    39  27  62 N17G25    30.34R WCI  30
HOLDREGE       CLOUDY    37  31  78 N8        30.37S WCI  31
KEARNEY        CLOUDY    38  30  73 N16       30.37R WCI  29
YORK           CLEAR     32  27  80 N9        30.34R WCI  24
$$

NEZ011>018-030>034-042>045-120500-
NORTHEAST NEBRASKA

CITY           SKY/WX    TMP DP  RH WIND       PRES   REMARKS
NORFOLK        CLEAR     27  24  89 NW12      30.34R WCI  17
ALBION         PTCLDY    33  26  76 N10G17    30.34R WCI  25
BLAIR          CLEAR     30  19  63 N16G24    30.28R WCI  18
COLUMBUS       CLEAR     31  26  82 NW17G24   30.34R WCI  19
FREMONT        CLEAR     30  22  72 NW15G24   30.32R WCI  19
TEKAMAH        CLEAR     27  17  66 NW16      30.32R WCI  15
WAYNE          CLEAR     25  15  65 N16G22    30.33R WCI  12
$$

NEZ050>053-065>068-078-088>093-120500-
SOUTHEAST NEBRASKA

CITY           SKY/WX    TMP DP  RH WIND       PRES   REMARKS
LINCOLN        CLEAR     34  27  75 N16G29    30.33R WCI  24
OMAHA EPPLEY   CLEAR     30  19  63 N18       30.29R WCI  18
BEATRICE       PTCLDY    33  26  73 N9        30.30R WCI  26
FALLS CITY     CLEAR     35  23  61 NW18G26   30.26R WCI  24
NEBRASKA CITY  CLEAR     33  22  64 N29G36    30.28R WCI  19
PLATTSMOUTH    CLEAR     31  17  56 NW18G25   30.29R WCI  20
$$

NEZ044-045-051>053-067-120500-
OMAHA AREA

CITY           SKY/WX    TMP DP  RH WIND       PRES   REMARKS
OMAHA EPPLEY   CLEAR     30  19  63 N18       30.29R WCI  18
BLAIR          CLEAR     30  19  63 N16G24    30.28R WCI  18
FREMONT        CLEAR     30  22  72 NW15G24   30.32R WCI  19
MILLARD        CLEAR     32  23  68 NW12G17   30.31R WCI  23
OFFUTT AFB     CLEAR     31  16  53 NW14G21   30.29R WCI  21
PLATTSMOUTH    CLEAR     31  17  56 NW18G25   30.29R WCI  20
WAHOO          FAIR      31  24  74 N14       30.32R WCI  21
$$



USA.gov is the U.S. government's official web portal to all federal, state and local government web resources and services.